Location: La Fredeussais
(48.1780°N, 1.3980°W)
Time: 11:27:57
(UTC+00:00)

PRISM - Pass Details

Date: 04 November 2021
Orbit: 561 x 584 km, 98.2° (Epoch: 29 November)

Event Time Altitude Azimuth Distance (km) Brightness Sun altitude
Rises 04:05:26 0° 15° (NNE) 2,788 ? -28.6°
Reaches altitude 10° 04:07:36 10° 17° (NNE) 1,881 ? -28.3°
Enters shadow 04:09:07 22° 19° (NNE) 1,270 ? -28.0°
